Time,TemperatureF,DewpointF,PressureIn,WindDirection,WindDirectionDegrees,WindSpeedMPH,WindSpeedGustMPH,Humidity,HourlyPrecipIn,Conditions,Clouds,dailyrainin,SoftwareType,DateUTC
2013-03-06 00:00:00,42.1,40.8,29.59,NNE,30,0.0,0.0,95,0.00,,,0.00,Wunderground v.1.15,2013-03-06 05:00:00,
2013-03-06 00:05:00,42.0,40.9,29.59,NNE,30,0.0,0.0,96,0.00,,,0.00,Wunderground v.1.15,2013-03-06 05:05:00,
2013-03-06 00:10:00,42.0,40.9,29.58,NNE,30,0.0,0.0,96,0.00,,,0.00,Wunderground v.1.15,2013-03-06 05:10:00,
2013-03-06 00:20:00,41.9,40.8,29.59,NW,322,1.0,1.0,96,0.00,,,0.00,Wunderground v.1.15,2013-03-06 05:20:00,
2013-03-06 00:25:00,41.8,40.7,29.59,WNW,300,1.0,1.0,96,0.00,,,0.00,Wunderground v.1.15,2013-03-06 05:25:00,
2013-03-06 00:30:00,41.8,40.7,29.58,NNE,17,0.0,0.0,96,0.00,,,0.00,Wunderground v.1.15,2013-03-06 05:30:00,
2013-03-06 00:35:00,41.8,40.7,29.58,North,11,0.0,0.0,96,0.00,,,0.00,Wunderground v.1.15,2013-03-06 05:35:00,
2013-03-06 00:40:00,41.7,40.6,29.58,NW,304,0.0,0.0,96,0.00,,,0.00,Wunderground v.1.15,2013-03-06 05:40:00,
2013-03-06 00:45:00,41.6,40.5,29.58,NW,313,0.0,0.0,96,0.00,,,0.00,Wunderground v.1.15,2013-03-06 05:45:00,
2013-03-06 00:50:00,41.5,40.4,29.57,NNW,344,0.0,0.0,96,0.00,,,0.00,Wunderground v.1.15,2013-03-06 05:50:00,
2013-03-06 01:00:00,41.3,40.2,29.57,ENE,59,0.0,0.0,96,0.00,,,0.00,Wunderground v.1.15,2013-03-06 06:00:00,
2013-03-06 01:10:00,41.0,39.9,29.56,NNE,31,1.0,1.0,96,0.00,,,0.00,Wunderground v.1.15,2013-03-06 06:10:00,
2013-03-06 01:15:00,40.8,39.7,29.55,North,5,1.0,4.0,96,0.00,,,0.00,Wunderground v.1.15,2013-03-06 06:15:00,
2013-03-06 01:20:00,40.6,39.5,29.56,North,355,1.0,1.0,96,0.00,,,0.00,Wunderground v.1.15,2013-03-06 06:20:00,
2013-03-06 01:25:00,40.6,39.5,29.55,North,351,0.0,1.0,96,0.00,,,0.00,Wunderground v.1.15,2013-03-06 06:25:00,
2013-03-06 01:30:00,40.5,39.4,29.56,North,351,0.0,0.0,96,0.00,,,0.00,Wunderground v.1.15,2013-03-06 06:30:00,
2013-03-06 01:40:00,40.4,39.4,29.56,West,280,1.0,1.0,96,0.00,,,0.00,Wunderground v.1.15,2013-03-06 06:40:00,
2013-03-06 01:45:00,40.2,39.2,29.56,WNW,294,1.0,1.0,96,0.00,,,0.00,Wunderground v.1.15,2013-03-06 06:45:00,
2013-03-06 01:50:00,40.2,39.2,29.56,WNW,294,0.0,0.0,96,0.00,,,0.00,Wunderground v.1.15,2013-03-06 06:50:00,
2013-03-06 01:55:00,40.0,39.0,29.57,NE,56,0.0,2.0,96,0.00,,,0.00,Wunderground v.1.15,2013-03-06 06:55:00,
2013-03-06 02:00:00,39.9,38.6,29.56,NW,309,0.0,0.0,95,0.00,,,0.00,Wunderground v.1.15,2013-03-06 07:00:00,
2013-03-06 02:05:00,39.7,38.4,29.56,NW,314,0.0,0.0,95,0.00,,,0.00,Wunderground v.1.15,2013-03-06 07:05:00,
2013-03-06 02:10:00,39.4,38.1,29.56,WNW,283,0.0,0.0,95,0.00,,,0.00,Wunderground v.1.15,2013-03-06 07:10:00,
2013-03-06 02:15:00,39.3,38.0,29.57,WNW,283,0.0,0.0,95,0.00,,,0.00,Wunderground v.1.15,2013-03-06 07:15:00,
2013-03-06 02:20:00,39.2,37.9,29.57,West,267,0.0,0.0,95,0.00,,,0.00,Wunderground v.1.15,2013-03-06 07:20:00,
2013-03-06 02:30:00,39.0,38.0,29.57,WNW,285,1.0,1.0,96,0.00,,,0.00,Wunderground v.1.15,2013-03-06 07:30:00,
2013-03-06 02:35:00,38.8,37.8,29.57,WNW,302,1.0,1.0,96,0.00,,,0.00,Wunderground v.1.15,2013-03-06 07:35:00,
2013-03-06 02:40:00,38.6,37.3,29.57,WNW,300,1.0,1.0,95,0.00,,,0.00,Wunderground v.1.15,2013-03-06 07:40:00,
2013-03-06 02:45:00,38.4,37.1,29.57,WNW,297,0.0,1.0,95,0.00,,,0.00,Wunderground v.1.15,2013-03-06 07:45:00,
2013-03-06 02:50:00,38.3,37.0,29.57,West,263,0.0,0.0,95,0.00,,,0.00,Wunderground v.1.15,2013-03-06 07:50:00,
2013-03-06 02:55:00,38.2,36.9,29.57,NW,304,1.0,1.0,95,0.00,,,0.00,Wunderground v.1.15,2013-03-06 07:55:00,
2013-03-06 03:00:00,38.2,36.9,29.57,WNW,292,1.0,4.0,95,0.00,,,0.00,Wunderground v.1.15,2013-03-06 08:00:00,
2013-03-06 03:10:00,38.2,37.2,29.57,West,277,1.0,1.0,96,0.00,,,0.00,Wunderground v.1.15,2013-03-06 08:10:00,
2013-03-06 03:20:00,38.2,37.2,29.57,West,279,1.0,1.0,96,0.00,,,0.00,Wunderground v.1.15,2013-03-06 08:20:00,
2013-03-06 03:25:00,38.3,37.3,29.58,WNW,289,1.0,1.0,96,0.00,,,0.00,Wunderground v.1.15,2013-03-06 08:25:00,
2013-03-06 03:30:00,38.3,37.3,29.58,WNW,283,1.0,1.0,96,0.00,,,0.00,Wunderground v.1.15,2013-03-06 08:30:00,
2013-03-06 03:35:00,38.3,37.3,29.58,West,272,1.0,2.0,96,0.00,,,0.00,Wunderground v.1.15,2013-03-06 08:35:00,
2013-03-06 03:40:00,38.1,36.8,29.58,West,277,2.0,2.0,95,0.00,,,0.00,Wunderground v.1.15,2013-03-06 08:40:00,
2013-03-06 03:45:00,37.9,36.6,29.58,SW,230,2.0,2.0,95,0.00,,,0.00,Wunderground v.1.15,2013-03-06 08:45:00,
2013-03-06 03:50:00,37.5,36.2,29.59,WNW,285,2.0,4.0,95,0.00,,,0.00,Wunderground v.1.15,2013-03-06 08:50:00,
2013-03-06 03:55:00,37.2,35.9,29.59,West,269,2.0,4.0,95,0.00,,,0.00,Wunderground v.1.15,2013-03-06 08:55:00,
2013-03-06 04:00:00,37.0,35.7,29.59,WNW,295,2.0,6.0,95,0.00,,,0.00,Wunderground v.1.15,2013-03-06 09:00:00,
2013-03-06 04:10:00,36.5,35.2,29.60,WNW,283,3.0,3.0,95,0.00,,,0.00,Wunderground v.1.15,2013-03-06 09:10:00,
2013-03-06 04:15:00,36.4,34.8,29.60,WNW,295,2.0,4.0,94,0.00,,,0.00,Wunderground v.1.15,2013-03-06 09:15:00,
2013-03-06 04:20:00,36.4,35.1,29.60,WNW,283,2.0,2.0,95,0.00,,,0.00,Wunderground v.1.15,2013-03-06 09:20:00,
2013-03-06 04:25:00,36.3,35.0,29.60,WSW,244,1.0,2.0,95,0.00,,,0.00,Wunderground v.1.15,2013-03-06 09:25:00,
2013-03-06 04:30:00,36.2,34.9,29.61,West,273,2.0,2.0,95,0.00,,,0.00,Wunderground v.1.15,2013-03-06 09:30:00,
2013-03-06 04:35:00,36.0,34.7,29.61,West,267,2.0,2.0,95,0.00,,,0.00,Wunderground v.1.15,2013-03-06 09:35:00,
2013-03-06 04:40:00,35.8,34.2,29.61,WNW,289,3.0,3.0,94,0.00,,,0.00,Wunderground v.1.15,2013-03-06 09:40:00,
2013-03-06 04:45:00,35.6,34.0,29.61,WNW,290,2.0,3.0,94,0.00,,,0.00,Wunderground v.1.15,2013-03-06 09:45:00,
2013-03-06 04:50:00,35.6,34.0,29.61,West,272,1.0,1.0,94,0.00,,,0.00,Wunderground v.1.15,2013-03-06 09:50:00,
2013-03-06 04:55:00,35.5,33.9,29.61,NW,304,1.0,1.0,94,0.00,,,0.00,Wunderground v.1.15,2013-03-06 09:55:00,
2013-03-06 05:00:00,35.5,33.9,29.61,NW,308,1.0,1.0,94,0.00,,,0.00,Wunderground v.1.15,2013-03-06 10:00:00,
2013-03-06 05:05:00,35.4,33.8,29.62,West,271,1.0,1.0,94,0.00,,,0.00,Wunderground v.1.15,2013-03-06 10:05:00,
2013-03-06 05:10:00,35.4,33.8,29.62,West,272,1.0,1.0,94,0.00,,,0.00,Wunderground v.1.15,2013-03-06 10:10:00,
2013-03-06 05:15:00,35.3,33.7,29.62,WNW,286,1.0,5.0,94,0.00,,,0.00,Wunderground v.1.15,2013-03-06 10:15:00,
2013-03-06 05:20:00,35.1,33.5,29.62,WNW,301,2.0,2.0,94,0.00,,,0.00,Wunderground v.1.15,2013-03-06 10:20:00,
2013-03-06 05:25:00,35.0,33.4,29.62,WNW,284,1.0,2.0,94,0.00,,,0.00,Wunderground v.1.15,2013-03-06 10:25:00,
2013-03-06 05:30:00,35.0,33.7,29.62,WNW,284,1.0,1.0,95,0.00,,,0.00,Wunderground v.1.15,2013-03-06 10:30:00,
2013-03-06 05:35:00,35.0,33.7,29.62,WNW,284,1.0,1.0,95,0.00,,,0.00,Wunderground v.1.15,2013-03-06 10:35:00,
2013-03-06 05:40:00,35.0,33.7,29.62,WNW,287,0.0,0.0,95,0.00,,,0.00,Wunderground v.1.15,2013-03-06 10:40:00,
2013-03-06 05:45:00,35.1,33.8,29.62,West,277,1.0,3.0,95,0.00,,,0.00,Wunderground v.1.15,2013-03-06 10:45:00,
2013-03-06 05:50:00,35.2,33.9,29.62,WNW,289,1.0,1.0,95,0.00,,,0.00,Wunderground v.1.15,2013-03-06 10:50:00,
2013-03-06 05:55:00,35.2,33.9,29.62,WSW,248,1.0,1.0,95,0.00,,,0.00,Wunderground v.1.15,2013-03-06 10:55:00,
2013-03-06 06:00:00,35.3,34.0,29.62,WSW,257,1.0,1.0,95,0.00,,,0.00,Wunderground v.1.15,2013-03-06 11:00:00,
2013-03-06 06:05:00,35.3,34.0,29.63,WSW,257,1.0,2.0,95,0.00,,,0.00,Wunderground v.1.15,2013-03-06 11:05:00,
2013-03-06 06:10:00,35.3,33.7,29.63,West,260,0.0,2.0,94,0.00,,,0.00,Wunderground v.1.15,2013-03-06 11:10:00,
2013-03-06 06:15:00,35.3,33.7,29.63,South,175,0.0,2.0,94,0.00,,,0.00,Wunderground v.1.15,2013-03-06 11:15:00,
2013-03-06 06:20:00,35.4,34.1,29.63,WNW,294,1.0,1.0,95,0.00,,,0.00,Wunderground v.1.15,2013-03-06 11:20:00,
2013-03-06 06:25:00,35.4,34.1,29.63,WNW,294,0.0,1.0,95,0.00,,,0.00,Wunderground v.1.15,2013-03-06 11:25:00,
2013-03-06 06:30:00,35.5,33.9,29.63,WNW,292,1.0,1.0,94,0.00,,,0.00,Wunderground v.1.15,2013-03-06 11:30:00,
2013-03-06 06:35:00,35.5,33.9,29.63,WNW,299,1.0,1.0,94,0.00,,,0.00,Wunderground v.1.15,2013-03-06 11:35:00,
2013-03-06 06:40:00,35.6,33.8,29.63,WSW,240,1.0,1.0,93,0.00,,,0.00,Wunderground v.1.15,2013-03-06 11:40:00,
2013-03-06 06:45:00,35.6,33.8,29.63,West,271,1.0,1.0,93,0.00,,,0.00,Wunderground v.1.15,2013-03-06 11:45:00,
2013-03-06 06:50:00,35.6,33.8,29.64,West,271,1.0,1.0,93,0.00,,,0.00,Wunderground v.1.15,2013-03-06 11:50:00,
2013-03-06 06:55:00,35.6,33.5,29.64,WNW,290,1.0,1.0,92,0.00,,,0.00,Wunderground v.1.15,2013-03-06 11:55:00,
2013-03-06 07:00:00,35.6,33.5,29.64,West,263,1.0,1.0,92,0.00,,,0.00,Wunderground v.1.15,2013-03-06 12:00:00,
2013-03-06 07:05:00,35.7,33.6,29.64,West,261,1.0,2.0,92,0.00,,,0.00,Wunderground v.1.15,2013-03-06 12:05:00,
2013-03-06 07:10:00,35.7,33.3,29.64,WNW,291,1.0,1.0,91,0.00,,,0.00,Wunderground v.1.15,2013-03-06 12:10:00,
2013-03-06 07:15:00,35.8,33.4,29.64,South,171,2.0,2.0,91,0.00,,,0.00,Wunderground v.1.15,2013-03-06 12:15:00,
2013-03-06 07:20:00,35.8,33.4,29.65,South,179,2.0,4.0,91,0.00,,,0.00,Wunderground v.1.15,2013-03-06 12:20:00,
2013-03-06 07:25:00,35.9,33.5,29.65,West,273,1.0,4.0,91,0.00,,,0.00,Wunderground v.1.15,2013-03-06 12:25:00,
2013-03-06 07:30:00,35.8,33.4,29.65,WSW,241,1.0,1.0,91,0.00,,,0.00,Wunderground v.1.15,2013-03-06 12:30:00,
2013-03-06 07:40:00,35.6,33.0,29.66,WSW,254,2.0,2.0,90,0.00,,,0.00,Wunderground v.1.15,2013-03-06 12:40:00,
2013-03-06 07:45:00,35.6,33.0,29.66,WNW,283,1.0,3.0,90,0.00,,,0.00,Wunderground v.1.15,2013-03-06 12:45:00,
2013-03-06 07:50:00,36.0,33.1,29.66,WNW,283,2.0,2.0,89,0.00,,,0.00,Wunderground v.1.15,2013-03-06 12:50:00,
2013-03-06 07:55:00,36.2,32.7,29.66,WSW,254,3.0,5.0,87,0.00,,,0.00,Wunderground v.1.15,2013-03-06 12:55:00,
2013-03-06 08:00:00,36.4,32.9,29.66,WSW,248,3.0,3.0,87,0.00,,,0.00,Wunderground v.1.15,2013-03-06 13:00:00,
2013-03-06 08:05:00,36.5,32.7,29.66,WNW,287,3.0,4.0,86,0.00,,,0.00,Wunderground v.1.15,2013-03-06 13:05:00,
2013-03-06 08:10:00,36.5,32.4,29.67,WNW,282,2.0,3.0,85,0.00,,,0.00,Wunderground v.1.15,2013-03-06 13:10:00,
2013-03-06 08:15:00,36.6,32.2,29.67,SSW,192,2.0,4.0,84,0.00,,,0.00,Wunderground v.1.15,2013-03-06 13:15:00,
2013-03-06 08:20:00,36.8,31.5,29.67,WNW,300,3.0,6.0,81,0.00,,,0.00,Wunderground v.1.15,2013-03-06 13:20:00,
2013-03-06 08:25:00,37.0,31.4,29.67,West,274,3.0,6.0,80,0.00,,,0.00,Wunderground v.1.15,2013-03-06 13:25:00,
2013-03-06 08:30:00,37.2,31.6,29.67,NW,306,3.0,3.0,80,0.00,,,0.00,Wunderground v.1.15,2013-03-06 13:30:00,
2013-03-06 08:35:00,37.4,31.8,29.67,SW,217,3.0,3.0,80,0.00,,,0.00,Wunderground v.1.15,2013-03-06 13:35:00,
2013-03-06 08:40:00,37.3,32.0,29.67,West,262,3.0,3.0,81,0.00,,,0.00,Wunderground v.1.15,2013-03-06 13:40:00,
2013-03-06 08:45:00,37.1,31.2,29.67,SW,221,3.0,3.0,79,0.00,,,0.00,Wunderground v.1.15,2013-03-06 13:45:00,
2013-03-06 08:50:00,36.9,31.0,29.68,West,272,3.0,3.0,79,0.00,,,0.00,Wunderground v.1.15,2013-03-06 13:50:00,
2013-03-06 08:55:00,36.9,31.6,29.68,West,263,3.0,3.0,81,0.00,,,0.00,Wunderground v.1.15,2013-03-06 13:55:00,
2013-03-06 09:00:00,37.0,31.4,29.67,WNW,286,3.0,3.0,80,0.00,,,0.00,Wunderground v.1.15,2013-03-06 14:00:00,
2013-03-06 09:05:00,37.5,31.9,29.68,South,186,3.0,3.0,80,0.00,,,0.00,Wunderground v.1.15,2013-03-06 14:05:00,
2013-03-06 09:10:00,37.9,31.3,29.68,SW,234,3.0,4.0,77,0.00,,,0.00,Wunderground v.1.15,2013-03-06 14:10:00,
2013-03-06 09:15:00,38.2,31.0,29.68,NW,304,3.0,7.0,75,0.00,,,0.00,Wunderground v.1.15,2013-03-06 14:15:00,
2013-03-06 09:20:00,38.4,31.5,29.68,North,5,4.0,4.0,76,0.00,,,0.00,Wunderground v.1.15,2013-03-06 14:20:00,
2013-03-06 09:25:00,38.4,30.5,29.68,WSW,246,4.0,4.0,73,0.00,,,0.00,Wunderground v.1.15,2013-03-06 14:25:00,
2013-03-06 09:30:00,38.7,31.8,29.68,ENE,63,3.0,3.0,76,0.00,,,0.00,Wunderground v.1.15,2013-03-06 14:30:00,
2013-03-06 09:35:00,39.1,31.8,29.69,West,277,2.0,3.0,75,0.00,,,0.00,Wunderground v.1.15,2013-03-06 14:35:00,
2013-03-06 09:40:00,39.5,30.9,29.69,WNW,282,3.0,9.0,71,0.00,,,0.00,Wunderground v.1.15,2013-03-06 14:40:00,
2013-03-06 09:45:00,39.2,29.9,29.69,WNW,292,4.0,9.0,69,0.00,,,0.00,Wunderground v.1.15,2013-03-06 14:45:00,
2013-03-06 09:50:00,39.4,30.8,29.69,West,270,4.0,4.0,71,0.00,,,0.00,Wunderground v.1.15,2013-03-06 14:50:00,
2013-03-06 09:55:00,39.5,29.8,29.70,WSW,255,5.0,5.0,68,0.00,,,0.00,Wunderground v.1.15,2013-03-06 14:55:00,
2013-03-06 10:00:00,39.3,29.3,29.69,WNW,289,5.0,11.0,67,0.00,,,0.00,Wunderground v.1.15,2013-03-06 15:00:00,
2013-03-06 10:05:00,39.1,29.4,29.69,WNW,282,5.0,11.0,68,0.00,,,0.00,Wunderground v.1.15,2013-03-06 15:05:00,
2013-03-06 10:10:00,38.9,29.6,29.70,WNW,292,5.0,7.0,69,0.00,,,0.00,Wunderground v.1.15,2013-03-06 15:10:00,
2013-03-06 10:15:00,38.8,28.4,29.70,West,261,6.0,7.0,66,0.00,,,0.00,Wunderground v.1.15,2013-03-06 15:15:00,
2013-03-06 10:20:00,38.8,28.4,29.70,SW,234,7.0,7.0,66,0.00,,,0.00,Wunderground v.1.15,2013-03-06 15:20:00,
2013-03-06 10:25:00,38.9,29.6,29.69,NW,306,5.0,9.0,69,0.00,,,0.00,Wunderground v.1.15,2013-03-06 15:25:00,
2013-03-06 10:30:00,39.2,29.2,29.70,West,259,5.0,5.0,67,0.00,,,0.00,Wunderground v.1.15,2013-03-06 15:30:00,
2013-03-06 10:40:00,39.7,29.3,29.70,WNW,296,5.0,5.0,66,0.00,,,0.00,Wunderground v.1.15,2013-03-06 15:40:00,
2013-03-06 10:50:00,40.3,28.3,29.70,West,270,3.0,8.0,62,0.00,,,0.00,Wunderground v.1.15,2013-03-06 15:50:00,
2013-03-06 10:55:00,40.3,28.3,29.70,WNW,296,5.0,8.0,62,0.00,,,0.00,Wunderground v.1.15,2013-03-06 15:55:00,
2013-03-06 11:00:00,40.4,29.6,29.70,West,269,5.0,5.0,65,0.00,,,0.00,Wunderground v.1.15,2013-03-06 16:00:00,
2013-03-06 11:05:00,40.7,30.6,29.71,West,279,3.0,5.0,67,0.00,,,0.00,Wunderground v.1.15,2013-03-06 16:05:00,
2013-03-06 11:10:00,40.6,29.0,29.71,WNW,298,5.0,5.0,63,0.00,,,0.00,Wunderground v.1.15,2013-03-06 16:10:00,
2013-03-06 11:15:00,40.4,29.2,29.71,WNW,283,5.0,7.0,64,0.00,,,0.00,Wunderground v.1.15,2013-03-06 16:15:00,
2013-03-06 11:20:00,40.3,28.3,29.71,WNW,287,5.0,5.0,62,0.00,,,0.00,Wunderground v.1.15,2013-03-06 16:20:00,
2013-03-06 11:25:00,40.4,28.8,29.71,WNW,293,5.0,5.0,63,0.00,,,0.00,Wunderground v.1.15,2013-03-06 16:25:00,
2013-03-06 11:30:00,40.6,29.7,29.71,NW,321,4.0,4.0,65,0.00,,,0.00,Wunderground v.1.15,2013-03-06 16:30:00,
2013-03-06 11:35:00,40.7,29.1,29.71,West,269,4.0,5.0,63,0.00,,,0.00,Wunderground v.1.15,2013-03-06 16:35:00,
2013-03-06 11:40:00,40.8,27.6,29.72,NW,325,6.0,6.0,59,0.00,,,0.00,Wunderground v.1.15,2013-03-06 16:40:00,
2013-03-06 11:45:00,40.8,28.0,29.72,West,267,7.0,7.0,60,0.00,,,0.00,Wunderground v.1.15,2013-03-06 16:45:00,
2013-03-06 11:50:00,40.9,28.5,29.72,West,279,6.0,6.0,61,0.00,,,0.00,Wunderground v.1.15,2013-03-06 16:50:00,
2013-03-06 11:55:00,40.9,28.9,29.72,West,265,5.0,6.0,62,0.00,,,0.00,Wunderground v.1.15,2013-03-06 16:55:00,
2013-03-06 12:00:00,41.1,28.7,29.72,NW,325,4.0,9.0,61,0.00,,,0.00,Wunderground v.1.15,2013-03-06 17:00:00,
2013-03-06 12:10:00,41.6,28.7,29.72,West,259,5.0,5.0,60,0.00,,,0.00,Wunderground v.1.15,2013-03-06 17:10:00,
2013-03-06 12:15:00,41.7,29.2,29.72,West,277,5.0,15.0,61,0.00,,,0.00,Wunderground v.1.15,2013-03-06 17:15:00,
2013-03-06 12:20:00,41.7,28.0,29.73,NW,304,5.0,7.0,58,0.00,,,0.00,Wunderground v.1.15,2013-03-06 17:20:00,
2013-03-06 12:25:00,41.7,28.4,29.73,West,273,5.0,7.0,59,0.00,,,0.00,Wunderground v.1.15,2013-03-06 17:25:00,
2013-03-06 12:30:00,41.7,28.8,29.73,WNW,282,4.0,6.0,60,0.00,,,0.00,Wunderground v.1.15,2013-03-06 17:30:00,
2013-03-06 12:35:00,41.7,29.2,29.73,West,268,4.0,6.0,61,0.00,,,0.00,Wunderground v.1.15,2013-03-06 17:35:00,
2013-03-06 12:40:00,41.8,28.9,29.73,WNW,291,4.0,5.0,60,0.00,,,0.00,Wunderground v.1.15,2013-03-06 17:40:00,
2013-03-06 12:45:00,41.8,29.3,29.74,WNW,282,4.0,6.0,61,0.00,,,0.00,Wunderground v.1.15,2013-03-06 17:45:00,
2013-03-06 12:50:00,41.8,28.5,29.74,WSW,250,5.0,7.0,59,0.00,,,0.00,Wunderground v.1.15,2013-03-06 17:50:00,
2013-03-06 12:55:00,41.9,28.6,29.73,WSW,254,6.0,10.0,59,0.00,,,0.00,Wunderground v.1.15,2013-03-06 17:55:00,
2013-03-06 13:00:00,42.0,28.7,29.74,West,273,6.0,10.0,59,0.00,,,0.00,Wunderground v.1.15,2013-03-06 18:00:00,
2013-03-06 13:05:00,42.2,29.3,29.74,WNW,287,6.0,10.0,60,0.00,,,0.00,Wunderground v.1.15,2013-03-06 18:05:00,
2013-03-06 13:10:00,42.5,29.6,29.74,NW,304,5.0,6.0,60,0.00,,,0.00,Wunderground v.1.15,2013-03-06 18:10:00,
2013-03-06 13:15:00,42.7,29.4,29.74,WNW,300,5.0,6.0,59,0.00,,,0.00,Wunderground v.1.15,2013-03-06 18:15:00,
2013-03-06 13:20:00,42.9,29.5,29.74,WNW,290,5.0,5.0,59,0.00,,,0.00,Wunderground v.1.15,2013-03-06 18:20:00,
2013-03-06 13:25:00,43.2,29.8,29.74,WNW,283,5.0,5.0,59,0.00,,,0.00,Wunderground v.1.15,2013-03-06 18:25:00,
2013-03-06 13:30:00,43.2,29.4,29.74,WSW,257,5.0,5.0,58,0.00,,,0.00,Wunderground v.1.15,2013-03-06 18:30:00,
2013-03-06 13:35:00,43.2,30.2,29.74,SW,224,5.0,6.0,60,0.00,,,0.00,Wunderground v.1.15,2013-03-06 18:35:00,
2013-03-06 13:40:00,43.4,30.0,29.74,SSW,213,5.0,5.0,59,0.00,,,0.00,Wunderground v.1.15,2013-03-06 18:40:00,
2013-03-06 13:45:00,43.6,30.2,29.75,NW,309,4.0,5.0,59,0.00,,,0.00,Wunderground v.1.15,2013-03-06 18:45:00,
2013-03-06 13:50:00,43.9,30.9,29.75,NW,316,3.0,3.0,60,0.00,,,0.00,Wunderground v.1.15,2013-03-06 18:50:00,
2013-03-06 13:55:00,43.9,30.9,29.75,WNW,292,4.0,4.0,60,0.00,,,0.00,Wunderground v.1.15,2013-03-06 18:55:00,
2013-03-06 14:00:00,43.9,30.5,29.75,WNW,297,5.0,5.0,59,0.00,,,0.00,Wunderground v.1.15,2013-03-06 19:00:00,
2013-03-06 14:05:00,44.2,30.8,29.75,WNW,282,6.0,8.0,59,0.00,,,0.00,Wunderground v.1.15,2013-03-06 19:05:00,
2013-03-06 14:10:00,44.6,31.1,29.75,West,279,5.0,5.0,59,0.00,,,0.00,Wunderground v.1.15,2013-03-06 19:10:00,
2013-03-06 14:15:00,45.1,31.2,29.75,West,265,4.0,5.0,58,0.00,,,0.00,Wunderground v.1.15,2013-03-06 19:15:00,
2013-03-06 14:20:00,45.5,30.7,29.75,ESE,107,4.0,7.0,56,0.00,,,0.00,Wunderground v.1.15,2013-03-06 19:20:00,
2013-03-06 14:25:00,45.6,30.8,29.75,NW,318,4.0,7.0,56,0.00,,,0.00,Wunderground v.1.15,2013-03-06 19:25:00,
2013-03-06 14:30:00,45.6,30.3,29.76,NNW,340,4.0,8.0,55,0.00,,,0.00,Wunderground v.1.15,2013-03-06 19:30:00,
2013-03-06 14:35:00,45.7,31.8,29.76,WNW,282,4.0,8.0,58,0.00,,,0.00,Wunderground v.1.15,2013-03-06 19:35:00,
2013-03-06 14:40:00,45.9,30.6,29.77,NW,319,5.0,11.0,55,0.00,,,0.00,Wunderground v.1.15,2013-03-06 19:40:00,
2013-03-06 14:45:00,45.8,30.5,29.77,WNW,290,5.0,11.0,55,0.00,,,0.00,Wunderground v.1.15,2013-03-06 19:45:00,
2013-03-06 14:50:00,45.5,31.1,29.77,WSW,256,5.0,5.0,57,0.00,,,0.00,Wunderground v.1.15,2013-03-06 19:50:00,
2013-03-06 14:55:00,45.5,31.1,29.78,WNW,300,5.0,5.0,57,0.00,,,0.00,Wunderground v.1.15,2013-03-06 19:55:00,
2013-03-06 15:00:00,45.4,31.9,29.78,WNW,293,4.0,10.0,59,0.00,,,0.00,Wunderground v.1.15,2013-03-06 20:00:00,
2013-03-06 15:05:00,45.5,32.0,29.78,West,277,4.0,10.0,59,0.00,,,0.00,Wunderground v.1.15,2013-03-06 20:05:00,
2013-03-06 15:10:00,45.6,31.7,29.79,WNW,294,4.0,4.0,58,0.00,,,0.00,Wunderground v.1.15,2013-03-06 20:10:00,
2013-03-06 15:15:00,45.6,31.2,29.79,South,171,4.0,4.0,57,0.00,,,0.00,Wunderground v.1.15,2013-03-06 20:15:00,
2013-03-06 15:20:00,45.7,31.3,29.80,WNW,286,4.0,4.0,57,0.00,,,0.00,Wunderground v.1.15,2013-03-06 20:20:00,
2013-03-06 15:30:00,45.6,31.7,29.81,West,281,4.0,6.0,58,0.00,,,0.00,Wunderground v.1.15,2013-03-06 20:30:00,
2013-03-06 15:35:00,45.6,31.7,29.80,WNW,286,4.0,6.0,58,0.00,,,0.00,Wunderground v.1.15,2013-03-06 20:35:00,
2013-03-06 15:40:00,45.6,31.2,29.81,WNW,294,3.0,6.0,57,0.00,,,0.00,Wunderground v.1.15,2013-03-06 20:40:00,
2013-03-06 15:45:00,45.5,31.1,29.82,West,277,4.0,6.0,57,0.00,,,0.00,Wunderground v.1.15,2013-03-06 20:45:00,
2013-03-06 15:50:00,45.6,32.1,29.82,WNW,302,3.0,4.0,59,0.00,,,0.00,Wunderground v.1.15,2013-03-06 20:50:00,
2013-03-06 15:55:00,45.6,32.1,29.83,WSW,257,2.0,4.0,59,0.00,,,0.00,Wunderground v.1.15,2013-03-06 20:55:00,
2013-03-06 16:00:00,45.6,32.5,29.83,WNW,283,2.0,3.0,60,0.00,,,0.00,Wunderground v.1.15,2013-03-06 21:00:00,
2013-03-06 16:05:00,45.6,32.1,29.83,NW,306,3.0,7.0,59,0.00,,,0.00,Wunderground v.1.15,2013-03-06 21:05:00,
2013-03-06 16:10:00,45.7,31.8,29.84,West,280,5.0,5.0,58,0.00,,,0.00,Wunderground v.1.15,2013-03-06 21:10:00,
2013-03-06 16:15:00,45.7,31.8,29.84,WNW,289,5.0,5.0,58,0.00,,,0.00,Wunderground v.1.15,2013-03-06 21:15:00,
2013-03-06 16:20:00,45.8,32.3,29.85,WNW,289,3.0,3.0,59,0.00,,,0.00,Wunderground v.1.15,2013-03-06 21:20:00,
2013-03-06 16:30:00,45.8,32.3,29.85,WNW,284,4.0,5.0,59,0.00,,,0.00,Wunderground v.1.15,2013-03-06 21:30:00,
2013-03-06 16:40:00,45.8,32.3,29.86,East,82,3.0,5.0,59,0.00,,,0.00,Wunderground v.1.15,2013-03-06 21:40:00,
2013-03-06 16:45:00,45.7,32.2,29.87,WNW,295,4.0,6.0,59,0.00,,,0.00,Wunderground v.1.15,2013-03-06 21:45:00,
2013-03-06 16:50:00,45.5,32.4,29.87,NW,315,4.0,6.0,60,0.00,,,0.00,Wunderground v.1.15,2013-03-06 21:50:00,
2013-03-06 17:00:00,45.3,32.2,29.88,West,264,4.0,4.0,60,0.00,,,0.00,Wunderground v.1.15,2013-03-06 22:00:00,
2013-03-06 17:05:00,45.3,32.2,29.88,WNW,296,3.0,4.0,60,0.00,,,0.00,Wunderground v.1.15,2013-03-06 22:05:00,
2013-03-06 17:10:00,45.3,32.2,29.89,West,268,3.0,4.0,60,0.00,,,0.00,Wunderground v.1.15,2013-03-06 22:10:00,
2013-03-06 17:15:00,45.2,31.7,29.89,West,265,4.0,4.0,59,0.00,,,0.00,Wunderground v.1.15,2013-03-06 22:15:00,
2013-03-06 17:20:00,45.2,31.7,29.89,NW,309,4.0,4.0,59,0.00,,,0.00,Wunderground v.1.15,2013-03-06 22:20:00,
2013-03-06 17:25:00,45.2,31.7,29.90,WNW,299,4.0,5.0,59,0.00,,,0.00,Wunderground v.1.15,2013-03-06 22:25:00,
2013-03-06 17:30:00,45.1,31.6,29.91,WNW,297,4.0,4.0,59,0.00,,,0.00,Wunderground v.1.15,2013-03-06 22:30:00,
2013-03-06 17:35:00,45.0,31.5,29.91,WNW,283,4.0,5.0,59,0.00,,,0.00,Wunderground v.1.15,2013-03-06 22:35:00,
2013-03-06 17:40:00,44.9,31.8,29.92,West,265,3.0,7.0,60,0.00,,,0.00,Wunderground v.1.15,2013-03-06 22:40:00,
2013-03-06 17:45:00,44.6,31.1,29.92,WNW,283,3.0,8.0,59,0.00,,,0.00,Wunderground v.1.15,2013-03-06 22:45:00,
2013-03-06 17:50:00,44.4,31.4,29.92,West,261,4.0,4.0,60,0.00,,,0.00,Wunderground v.1.15,2013-03-06 22:50:00,
2013-03-06 17:55:00,44.2,31.2,29.93,West,268,3.0,4.0,60,0.00,,,0.00,Wunderground v.1.15,2013-03-06 22:55:00,
2013-03-06 18:00:00,44.1,31.1,29.93,WNW,300,3.0,3.0,60,0.00,,,0.00,Wunderground v.1.15,2013-03-06 23:00:00,
2013-03-06 18:05:00,44.0,31.0,29.93,ENE,65,3.0,3.0,60,0.00,,,0.00,Wunderground v.1.15,2013-03-06 23:05:00,
2013-03-06 18:10:00,43.9,30.9,29.94,WSW,252,4.0,5.0,60,0.00,,,0.00,Wunderground v.1.15,2013-03-06 23:10:00,
2013-03-06 18:15:00,43.8,30.8,29.94,WNW,286,4.0,5.0,60,0.00,,,0.00,Wunderground v.1.15,2013-03-06 23:15:00,
2013-03-06 18:20:00,43.6,30.6,29.95,West,281,2.0,2.0,60,0.00,,,0.00,Wunderground v.1.15,2013-03-06 23:20:00,
2013-03-06 18:25:00,43.5,30.9,29.95,WNW,298,2.0,4.0,61,0.00,,,0.00,Wunderground v.1.15,2013-03-06 23:25:00,
2013-03-06 18:30:00,43.4,30.8,29.96,South,182,2.0,4.0,61,0.00,,,0.00,Wunderground v.1.15,2013-03-06 23:30:00,
2013-03-06 18:35:00,43.3,30.7,29.96,SW,229,3.0,4.0,61,0.00,,,0.00,Wunderground v.1.15,2013-03-06 23:35:00,
2013-03-06 18:40:00,43.2,31.1,29.96,West,275,4.0,6.0,62,0.00,,,0.00,Wunderground v.1.15,2013-03-06 23:40:00,
2013-03-06 18:45:00,43.1,30.6,29.97,West,278,4.0,6.0,61,0.00,,,0.00,Wunderground v.1.15,2013-03-06 23:45:00,
2013-03-06 18:50:00,43.1,30.6,29.97,WNW,299,5.0,5.0,61,0.00,,,0.00,Wunderground v.1.15,2013-03-06 23:50:00,
2013-03-06 18:55:00,43.0,30.5,29.97,WNW,287,4.0,5.0,61,0.00,,,0.00,Wunderground v.1.15,2013-03-06 23:55:00,
2013-03-06 19:00:00,42.9,30.8,29.97,ENE,67,3.0,5.0,62,0.00,,,0.00,Wunderground v.1.15,2013-03-07 00:00:00,
2013-03-06 19:10:00,42.7,30.2,29.99,NNW,328,4.0,5.0,61,0.00,,,0.00,Wunderground v.1.15,2013-03-07 00:10:00,
2013-03-06 19:15:00,42.5,30.4,29.99,West,268,4.0,5.0,62,0.00,,,0.00,Wunderground v.1.15,2013-03-07 00:15:00,
2013-03-06 19:20:00,42.5,30.4,29.99,WNW,292,4.0,4.0,62,0.00,,,0.00,Wunderground v.1.15,2013-03-07 00:20:00,
2013-03-06 19:30:00,42.2,30.1,30.00,West,269,3.0,3.0,62,0.00,,,0.00,Wunderground v.1.15,2013-03-07 00:30:00,
2013-03-06 19:40:00,42.0,30.7,30.00,WSW,256,3.0,3.0,64,0.00,,,0.00,Wunderground v.1.15,2013-03-07 00:40:00,
2013-03-06 19:50:00,41.9,30.6,30.01,WNW,303,2.0,2.0,64,0.00,,,0.00,Wunderground v.1.15,2013-03-07 00:50:00,
2013-03-06 19:55:00,41.8,30.5,30.01,WNW,287,1.0,2.0,64,0.00,,,0.00,Wunderground v.1.15,2013-03-07 00:55:00,
2013-03-06 20:00:00,41.6,30.3,30.01,WNW,284,2.0,2.0,64,0.00,,,0.00,Wunderground v.1.15,2013-03-07 01:00:00,
2013-03-06 20:05:00,41.4,30.1,30.01,WNW,294,2.0,2.0,64,0.00,,,0.00,Wunderground v.1.15,2013-03-07 01:05:00,
2013-03-06 20:10:00,41.3,30.0,30.01,West,273,2.0,2.0,64,0.00,,,0.00,Wunderground v.1.15,2013-03-07 01:10:00,
2013-03-06 20:15:00,41.2,29.9,30.01,West,281,2.0,2.0,64,0.00,,,0.00,Wunderground v.1.15,2013-03-07 01:15:00,
2013-03-06 20:20:00,40.9,30.4,30.02,West,273,1.0,4.0,66,0.00,,,0.00,Wunderground v.1.15,2013-03-07 01:20:00,
2013-03-06 20:30:00,40.6,29.7,30.02,WNW,298,2.0,2.0,65,0.00,,,0.00,Wunderground v.1.15,2013-03-07 01:30:00,
2013-03-06 20:35:00,40.5,29.7,30.02,WNW,296,2.0,4.0,65,0.00,,,0.00,Wunderground v.1.15,2013-03-07 01:35:00,
2013-03-06 20:40:00,40.3,30.2,30.02,WNW,284,1.0,1.0,67,0.00,,,0.00,Wunderground v.1.15,2013-03-07 01:40:00,
2013-03-06 20:45:00,40.1,30.0,30.02,WSW,253,1.0,1.0,67,0.00,,,0.00,Wunderground v.1.15,2013-03-07 01:45:00,
2013-03-06 20:50:00,40.0,29.6,30.03,West,277,2.0,2.0,66,0.00,,,0.00,Wunderground v.1.15,2013-03-07 01:50:00,
2013-03-06 20:55:00,39.8,29.7,30.03,WNW,297,1.0,2.0,67,0.00,,,0.00,Wunderground v.1.15,2013-03-07 01:55:00,
2013-03-06 21:00:00,39.7,29.6,30.03,West,279,1.0,1.0,67,0.00,,,0.00,Wunderground v.1.15,2013-03-07 02:00:00,
2013-03-06 21:05:00,39.5,29.8,30.04,WNW,297,1.0,1.0,68,0.00,,,0.00,Wunderground v.1.15,2013-03-07 02:05:00,
2013-03-06 21:10:00,39.4,29.7,30.04,NW,306,1.0,1.0,68,0.00,,,0.00,Wunderground v.1.15,2013-03-07 02:10:00,
2013-03-06 21:15:00,39.1,29.4,30.04,NW,304,0.0,1.0,68,0.00,,,0.00,Wunderground v.1.15,2013-03-07 02:15:00,
2013-03-06 21:20:00,38.9,29.6,30.04,NW,304,0.0,1.0,69,0.00,,,0.00,Wunderground v.1.15,2013-03-07 02:20:00,
2013-03-06 21:25:00,38.8,29.5,30.04,West,261,0.0,3.0,69,0.00,,,0.00,Wunderground v.1.15,2013-03-07 02:25:00,
2013-03-06 21:30:00,38.8,29.5,30.04,WNW,302,1.0,1.0,69,0.00,,,0.00,Wunderground v.1.15,2013-03-07 02:30:00,
2013-03-06 21:35:00,38.6,29.3,30.04,WNW,302,1.0,1.0,69,0.00,,,0.00,Wunderground v.1.15,2013-03-07 02:35:00,
2013-03-06 21:40:00,38.5,29.6,30.05,WSW,251,0.0,0.0,70,0.00,,,0.00,Wunderground v.1.15,2013-03-07 02:40:00,
2013-03-06 21:50:00,38.3,29.7,30.05,West,265,1.0,1.0,71,0.00,,,0.00,Wunderground v.1.15,2013-03-07 02:50:00,
2013-03-06 21:55:00,38.0,29.4,30.05,WSW,257,0.0,1.0,71,0.00,,,0.00,Wunderground v.1.15,2013-03-07 02:55:00,
2013-03-06 22:00:00,37.9,29.3,30.05,WSW,257,0.0,0.0,71,0.00,,,0.00,Wunderground v.1.15,2013-03-07 03:00:00,
2013-03-06 22:05:00,37.8,29.2,30.05,West,272,0.0,0.0,71,0.00,,,0.00,Wunderground v.1.15,2013-03-07 03:05:00,
2013-03-06 22:10:00,37.7,29.5,30.05,West,271,0.0,0.0,72,0.00,,,0.00,Wunderground v.1.15,2013-03-07 03:10:00,
2013-03-06 22:15:00,37.6,29.4,30.06,WNW,290,1.0,1.0,72,0.00,,,0.00,Wunderground v.1.15,2013-03-07 03:15:00,
2013-03-06 22:20:00,37.5,29.3,30.06,WNW,290,1.0,1.0,72,0.00,,,0.00,Wunderground v.1.15,2013-03-07 03:20:00,
2013-03-06 22:25:00,37.3,29.4,30.06,WSW,248,0.0,1.0,73,0.00,,,0.00,Wunderground v.1.15,2013-03-07 03:25:00,
2013-03-06 22:30:00,37.4,29.2,30.06,WNW,288,1.0,1.0,72,0.00,,,0.00,Wunderground v.1.15,2013-03-07 03:30:00,
2013-03-06 22:35:00,37.4,29.2,30.06,WNW,288,1.0,1.0,72,0.00,,,0.00,Wunderground v.1.15,2013-03-07 03:35:00,
2013-03-06 22:40:00,37.5,29.3,30.06,North,360,1.0,1.0,72,0.00,,,0.00,Wunderground v.1.15,2013-03-07 03:40:00,
2013-03-06 22:50:00,37.4,29.5,30.06,West,275,1.0,1.0,73,0.00,,,0.00,Wunderground v.1.15,2013-03-07 03:50:00,
2013-03-06 23:00:00,37.4,29.5,30.06,NW,306,1.0,2.0,73,0.00,,,0.00,Wunderground v.1.15,2013-03-07 04:00:00,
2013-03-06 23:05:00,37.4,29.2,30.06,WNW,292,1.0,2.0,72,0.00,,,0.00,Wunderground v.1.15,2013-03-07 04:05:00,
2013-03-06 23:10:00,37.4,29.2,30.06,WNW,290,1.0,1.0,72,0.00,,,0.00,Wunderground v.1.15,2013-03-07 04:10:00,
2013-03-06 23:15:00,37.4,29.2,30.06,West,261,1.0,2.0,72,0.00,,,0.00,Wunderground v.1.15,2013-03-07 04:15:00,
2013-03-06 23:20:00,37.5,29.6,30.06,West,281,1.0,1.0,73,0.00,,,0.00,Wunderground v.1.15,2013-03-07 04:20:00,
2013-03-06 23:25:00,37.5,29.3,30.06,WNW,293,1.0,1.0,72,0.00,,,0.00,Wunderground v.1.15,2013-03-07 04:25:00,
2013-03-06 23:30:00,37.5,29.3,30.06,West,261,1.0,1.0,72,0.00,,,0.00,Wunderground v.1.15,2013-03-07 04:30:00,
2013-03-06 23:35:00,37.4,29.5,30.06,NW,314,1.0,1.0,73,0.00,,,0.00,Wunderground v.1.15,2013-03-07 04:35:00,
2013-03-06 23:40:00,37.4,29.5,30.06,WNW,293,1.0,1.0,73,0.00,,,0.00,Wunderground v.1.15,2013-03-07 04:40:00,
2013-03-06 23:45:00,37.3,29.4,30.06,West,273,1.0,3.0,73,0.00,,,0.00,Wunderground v.1.15,2013-03-07 04:45:00,
2013-03-06 23:50:00,37.3,29.4,30.06,West,281,1.0,1.0,73,0.00,,,0.00,Wunderground v.1.15,2013-03-07 04:50:00,
2013-03-06 23:55:00,37.3,29.4,30.07,SW,224,1.0,1.0,73,0.00,,,0.00,Wunderground v.1.15,2013-03-07 04:55:00,